This demonstration page uses our WeatherBlox Daily Observations layout. Learn more.

Left ArrowRight Arrow

Hourly Observations for September 14, 2021

Temp ( °F °C ) Dew Point ( °F °C ) Humidity (%) Winds ( mph kmh ) Pressure ( in mb ) Visibility ( mi km ) Precip ( " mm )
12:15 am 00:15 Clear 64 17.6 60 15.5 88 88 N N/A 29.88 1012 10 16 N/A
12:35 am 00:35 Clear 65 18.1 58 14.7 81 81 N N/A 29.87 1012 10 16 N/A
12:55 am 00:55 Clear 64 17.6 58 14.6 83 83 N 3 6 29.88 1012 10 16 N/A
1:15 am 01:15 Clear 62 16.7 58 14.4 86 86 N N/A 29.89 1012 10 16 N/A
1:35 am 01:35 Clear 61 16.3 58 14.3 88 88 WNW 3 6 29.91 1013 10 16 N/A
1:55 am 01:55 Clear 62 16.7 58 14.6 88 88 WNW 3 6 29.90 1013 10 16 N/A
2:15 am 02:15 Clear 63 17 58 14.5 85 85 WNW 5 7 29.90 1013 10 16 N/A
2:35 am 02:35 Clear 62 16.7 58 14.3 86 86 WNW 3 6 29.91 1013 10 16 N/A
2:55 am 02:55 Clear 62 16.5 58 14.4 87 87 NNW 3 6 29.92 1013 10 16 N/A
3:15 am 03:15 Clear 62 16.7 58 14.5 87 87 N 3 6 29.91 1013 10 16 N/A
3:35 am 03:35 Clear 62 16.6 58 14.7 89 89 S 3 6 29.92 1013 10 16 N/A
3:55 am 03:55 Clear 61 15.9 58 14.2 90 90 N N/A 29.92 1013 10 16 N/A
4:15 am 04:15 Clear 62 16.8 58 14.7 88 88 N N/A 29.92 1013 10 16 N/A
4:35 am 04:35 Clear 61 16.1 58 14.7 91 91 N N/A 29.92 1013 10 16 N/A
4:55 am 04:55 Clear 62 16.5 59 14.8 90 90 N N/A 29.93 1013 10 16 N/A
5:15 am 05:15 Partly Cloudy 62 16.6 59 15 90 90 N N/A 29.93 1013 10 16 N/A
5:35 am 05:35 Mostly Cloudy 62 16.7 59 15 90 90 N N/A 29.93 1014 10 16 N/A
5:55 am 05:55 Cloudy with Light Rain 62 16.9 60 15.4 91 91 ENE 7 11 29.88 1012 10 16 N/A
6:15 am 06:15 Mostly Cloudy with Light Rain 62 16.7 59 15.1 90 90 N N/A 29.92 1013 10 16 N/A
6:35 am 06:35 Mostly Cloudy 62 16.7 60 15.4 92 92 WSW 3 6 29.94 1014 10 16 N/A
6:55 am 06:55 Cloudy with Light Rain 62 16.6 60 15.3 92 92 N 3 6 29.93 1013 10 16 N/A
7:15 am 07:15 Partly Cloudy with Light Rain 62 16.5 60 15.5 94 94 N N/A 29.93 1013 10 16 N/A
7:35 am 07:35 Mostly Cloudy 62 16.5 60 15.4 93 93 N 3 6 29.95 1014 10 16 N/A
7:55 am 07:55 Mostly Cloudy with Light Rain 62 16.6 60 15.5 93 93 N N/A 29.94 1014 10 16 0.01 0.25
8:15 am 08:15 Partly Cloudy 62 16.7 60 15.5 93 93 N 8 13 29.94 1014 10 16 N/A
8:35 am 08:35 Mostly Cloudy with Light Rain 63 17 60 15.7 92 92 N 7 11 29.95 1014 10 16 N/A
8:55 am 08:55 Partly Cloudy 63 17.1 60 15.8 92 92 N 5 7 29.96 1015 10 16 N/A
9:15 am 09:15 Partly Cloudy 65 18.2 61 16.2 88 88 NNE 8 13 29.95 1014 10 16 N/A
9:35 am 09:35 Partly Cloudy 65 18.5 61 16.1 86 86 ENE 12 19 29.93 1014 10 16 N/A
9:55 am 09:55 Mostly Cloudy 65 18.4 62 16.4 88 88 N 10 17 29.95 1014 10 16 N/A
10:15 am 10:15 Partly Cloudy 67 19.5 62 16.5 83 83 N 10 17 29.97 1015 10 16 N/A
10:35 am 10:35 Mostly Cloudy 68 20 61 16.2 79 79 N 13 20 29.99 1015 10 16 N/A
11:15 am 11:15 Partly Cloudy 69 20.7 60 15.6 73 73 NNE 15 24 29.96 1015 10 16 N/A
11:35 am 11:35 Sunny 69 20.7 60 15.5 72 72 NNE 10 17 29.96 1015 10 16 N/A
11:55 am 11:55 Sunny 70 21 60 15.4 70 70 NE 13 20 29.96 1015 10 16 N/A
12:15 pm 12:15 Sunny 71 21.7 60 15.5 68 68 N 8 13 29.98 1015 10 16 N/A
12:35 pm 12:35 Partly Cloudy 73 22.6 59 15.2 63 63 N 8 13 29.97 1015 10 16 N/A
12:55 pm 12:55 Partly Cloudy 72 22.4 59 14.8 62 62 N 10 17 29.96 1014 10 16 N/A
1:15 pm 13:15 Partly Cloudy 72 22.2 58 14.2 61 61 NNE 16 26 29.95 1014 10 16 N/A
1:35 pm 13:35 Partly Cloudy 72 22 58 14.6 63 63 NNE 12 19 29.94 1014 10 16 N/A
1:55 pm 13:55 Sunny 73 22.9 59 15.1 62 62 NNE 13 20 29.93 1014 10 16 N/A
2:15 pm 14:15 Sunny 72 22.2 59 14.9 63 63 NNE 10 17 29.94 1014 10 16 N/A
2:35 pm 14:35 Sunny 72 22.2 59 14.8 63 63 NNE 15 24 29.93 1014 10 16 N/A
2:55 pm 14:55 Partly Cloudy 73 23 58 14.2 58 58 NE 14 22 29.91 1013 10 16 N/A
3:15 pm 15:15 Sunny 72 22.2 58 14.3 61 61 NNE 8 13 29.93 1014 10 16 N/A
3:35 pm 15:35 Sunny 72 22.3 57 14 59 59 NNE 6 9 29.92 1013 10 16 N/A
3:55 pm 15:55 Sunny 74 23.2 57 13.9 56 56 ENE 7 11 29.91 1013 10 16 N/A
4:15 pm 16:15 Sunny 73 22.9 56 13.5 56 56 E 7 11 29.90 1013 10 16 N/A
4:35 pm 16:35 Sunny 74 23.5 56 13.2 53 53 ESE 6 9 29.90 1012 10 16 N/A
4:55 pm 16:55 Sunny 74 23.5 57 13.8 55 55 ENE 8 13 29.90 1012 10 16 N/A
5:15 pm 17:15 Sunny 74 23.5 56 13.2 53 53 ENE 7 11 29.90 1012 10 16 N/A
5:35 pm 17:35 Sunny 74 23.5 56 13.2 53 53 E 8 13 29.90 1012 10 16 N/A
5:55 pm 17:55 Sunny 74 23.5 56 13.5 54 54 E 7 11 29.91 1013 10 16 N/A
6:15 pm 18:15 Sunny 74 23.2 57 13.9 56 56 ENE 5 7 29.91 1013 10 16 N/A
6:35 pm 18:35 Sunny 73 23 58 14.4 59 59 ENE 6 9 29.91 1013 10 16 N/A
6:55 pm 18:55 Sunny 72 22.3 58 14.7 62 62 ENE 6 9 29.91 1013 10 16 N/A
7:15 pm 19:15 Sunny 71 21.6 59 15 66 66 E 6 9 29.91 1013 10 16 N/A
7:35 pm 19:35 Sunny 68 20.2 60 15.4 74 74 E 6 9 29.93 1013 10 16 N/A
7:55 pm 19:55 Clear 66 19 60 15.4 80 80 ENE 5 7 29.94 1014 10 16 N/A
8:15 pm 20:15 Clear 64 18 59 15.1 83 83 ENE 6 9 29.94 1014 10 16 N/A
8:35 pm 20:35 Clear 63 17.3 59 14.8 85 85 ENE 6 9 29.96 1015 10 16 N/A
8:55 pm 20:55 Clear 63 17.1 58 14.6 85 85 ENE 6 9 29.96 1015 10 16 N/A
9:15 pm 21:15 Clear 63 17 58 14.4 85 85 E 6 9 29.98 1015 10 16 N/A
9:35 pm 21:35 Clear 62 16.4 58 14.4 88 88 E 6 9 29.99 1015 10 16 N/A
9:55 pm 21:55 Clear 61 16 57 14.1 89 89 E 7 11 29.99 1016 10 16 N/A
10:15 pm 22:15 Clear 61 15.9 57 13.9 88 88 ENE 6 9 30.00 1016 10 16 N/A
10:35 pm 22:35 Clear 61 16 57 14 88 88 E 6 9 30.00 1016 10 16 N/A
10:55 pm 22:55 Clear 60 15.6 57 14.1 91 91 E 7 11 30.00 1016 10 16 N/A
11:15 pm 23:15 Clear 61 16 58 14.2 89 89 E 6 9 30.00 1016 10 16 N/A
11:35 pm 23:35 Clear 60 15.5 57 14.1 91 91 ESE 6 9 30.00 1016 10 16 N/A
11:55 pm 23:55 Clear 59 14.9 57 13.7 93 93 ESE 6 9 30.01 1016 10 16 N/A

Powered by AerisWeather